{"data":{"norad_id":64905,"intl_designator":"2025-157B","name":"STARLINK-34273","alt_names":[],"object_type":"PAYLOAD","status":"ACTIVE","operator":null,"country":"US","launch_date":"2025-07-26","launch_site_code":"AFETR","launch_vehicle":null,"mission":null,"orbit_class":"UNKNOWN","rcs_meters":null,"size_class":null,"mass_kg":null,"dimensions":null,"purposes":["comms"],"wikipedia_slug":null,"has_3d_model":false,"image_url":null,"decayed_at":null,"tle_current":{"epoch":"2026-05-24T23:45:49.709088Z","epoch_age_seconds":72044,"freshness":"FRESH","line1":"1 64905U 25157B   26144.99015867  .00180984  00000+0  59058-2 0  9994","line2":"2 64905  53.1615 351.4117 0004168 124.6045 235.5349 15.30576177 47813","mean_motion":15.30576177,"eccentricity":0.0004168,"inclination_deg":53.1615,"raan_deg":351.4117,"arg_perigee_deg":124.6045,"mean_anomaly_deg":235.5349,"bstar":0.0059058,"rev_number":4781,"period_min":94.082216987231,"perigee_km":471.23609366444,"apogee_km":476.9481118445,"semimajor_km":6852.2291027545,"source":"CELESTRAK","updated_at":"2026-05-25T13:38:20.618863Z"}}}